This is the latest recevied weather packets stored in our database for station/object NM5PB. If no packets are shown the sender has not sent any weather packets the latest 10 day(s).
| Time | Temp. | Humidity | Pressure | Rain* | Wind** | Luminosity | Snow |
|---|---|---|---|---|---|---|---|
| 1777528864 | 2.78° C | 90% | - | 0 mm | - | - | - |
| 1777528264 | 2.78° C | 89% | - | 0 mm | - | - | - |
| 1777527664 | 3.33° C | 88% | - | 0 mm | - | - | - |
| 1777527064 | 3.33° C | 87% | - | 0 mm | - | - | - |
| 1777526464 | 3.33° C | 87% | - | 0 mm | - | - | - |
| 1777525864 | 3.33° C | 87% | - | 0 mm | - | - | - |
| 1777525264 | 3.33° C | 87% | - | 0 mm | - | - | - |
| 1777524664 | 3.89° C | 85% | - | 0 mm | - | - | - |
| 1777524064 | 3.89° C | 84% | - | 0 mm | - | - | - |
| 1777523464 | 3.89° C | 84% | - | 0 mm | - | - | - |
| 1777522864 | 3.89° C | 83% | - | 0 mm | - | - | - |
| 1777522264 | 4.44° C | 82% | - | 0 mm | - | - | - |
| 1777521664 | 4.44° C | 81% | - | 0 mm | - | - | - |
| 1777521064 | 4.44° C | 82% | - | 0 mm | - | - | - |
| 1777520464 | 4.44° C | 81% | - | 0 mm | - | - | - |
| 1777519864 | 5° C | 81% | - | 0 mm | - | - | - |
| 1777519264 | 5° C | 79% | - | 0 mm | - | - | - |
| 1777518664 | 5.56° C | 77% | - | 0 mm | - | - | - |
| 1777518064 | 5.56° C | 77% | - | 0 mm | - | - | - |
| 1777517464 | 6.11° C | 74% | - | 0 mm | - | - | - |
| 1777516864 | 6.67° C | 69% | - | 0 mm | - | - | - |
| 1777516264 | 7.22° C | 69% | - | 0 mm | - | - | - |
| 1777515664 | 7.22° C | 65% | - | 0 mm | - | - | - |
| 1777515064 | 7.78° C | 64% | - | 0 mm | - | - | - |
| 1777514464 | 8.33° C | 67% | - | 0 mm | - | - | - |
* Rain latest hour (hover to see other rain measurements)
** Current wind speed in m/s (hover to see current wind gust speed)